Flag for Germany Weather past 2 weeks in Frankfurt an der Oder, Brandenburg, Germany

Now
69 °F

Scattered clouds.


Feels Like: 69 °F
Forecast: 48 / 62 °F
Wind: 5 mph from Southwest

Location: Lindenberg

Current Time: May 6, 2015 at 6:38:58 PM

Latest Report: May 6, 2015 at 6:00 PM


Visibility: 25 mi

Pressure: 29.84 "Hg

Humidity: 38%

Dew point: 43 °F

Location of Frankfurt an der OderLocation

Historic Weather in Frankfurt an der Oder — Graph

°F

Frankfurt an der Oder temperature yesterday

Maximum temperature yesterday: 76 °F (at 4:00 PM)
Minimum temperature yesterday: 58 °F (at 6:00 AM)
Average temperature yesterday: 67 °F

Past Weeks' High & Low Weather Summary

 TemperatureHumidityPressure
High76 °F (May 5, 4:00 PM)99% (May 4, 5:00 AM)30.27 "Hg (May 4, 5:00 AM)
Low36 °F (Apr 29, 6:00 AM)21% (Apr 21, 5:00 PM)29.58 "Hg (Apr 27, 2:00 PM)
Average54 °F66%29.88 "Hg
* Reported Apr 21 5:00 PM — May 6 5:00 PM, Frankfurt an der Oder, Weather by CustomWeather, © 2015

Note: Actual official high and low records may vary slightly from our data, if they occured in-between our weather recording intervals... More about our weather records

Advertising

Frankfurt an der Oder weather history for previous 24 hours

 ConditionsComfort  
Time TempWeatherWind HumidityBarometerVisibility
5:00 PM
Wed, May 6
68 °FPartly sunny.5 mph46%29.85 "Hg28 mi
4:00 PM65 °FOvercast.2 mph52%29.87 "Hg28 mi
3:00 PM64 °FOvercast.2 mph50%29.88 "Hg28 mi
2:00 PM64 °FOvercast.2 mph46%29.89 "Hg28 mi
1:00 PM64 °FOvercast.2 mph43%29.90 "Hg25 mi
12:00 PM63 °FOvercast.2 mph39%29.92 "Hg25 mi
11:00 AM62 °FPartly sunny.2 mph45%29.92 "Hg25 mi
10:00 AM60 °FOvercast.2 mph46%29.91 "Hg19 mi
9:00 AM60 °FPartly sunny.1 mph56%29.91 "Hg19 mi
8:00 AM56 °FOvercast.1 mph67%29.91 "Hg19 mi
7:00 AM52 °FPartly sunny.2 mph81%29.91 "Hg16 mi
6:00 AM51 °FScattered clouds.2 mph82%29.90 "Hg12 mi
4:00 AM54 °FPassing clouds.2 mph77%29.88 "Hg28 mi
3:00 AM58 °FPassing clouds.3 mph67%29.87 "Hg28 mi
2:00 AM60 °FOvercast.7 mph62%29.85 "Hg28 mi
1:00 AM62 °FOvercast.7 mph60%29.83 "Hg28 mi
12:00 AM63 °FOvercast.6 mph73%29.80 "Hg28 mi
11:00 PM
Tue, May 5
66 °FOvercast.7 mph62%29.77 "Hg28 mi
10:00 PM70 °FOvercast.6 mph59%29.70 "Hg28 mi
9:00 PM71 °FOvercast.7 mph55%29.66 "Hg28 mi
8:00 PM72 °FOvercast.6 mph57%29.64 "Hg31 mi
7:00 PM75 °FOvercast.6 mph56%29.64 "Hg25 mi
6:00 PM75 °FOvercast.3 mph59%29.64 "Hg22 mi
Weather by CustomWeather, © 2015

See weather overviewHow to use our weather pages